When you browse on this site, cookies collect data to enhance your experience and personalize the content and advertising you see.
Visit our Privacy Policy to learn more. By continuing to use the site, you agree to this use of cookies and data.
  • In Latvia
  • List of Countries
  • For 7 days
  • Water Temperature
  • Weather Map
  • Weather Widgets
  • user-avatar
    Login

    Hourly Weather Kreuzlingen

    Today, 23 September, Monday

    Time Temperature Precipitation Wind Pressure Humidity
    00:00 +16°C° 0 mm 3 mps 719 mmHg 84%
    01:00 +16°C° 0 mm 3 mps 720 mmHg 88%
    02:00 +14°C° 1.1 mm 3 mps 720 mmHg 91%
    03:00 +14°C° 1.1 mm 3 mps 720 mmHg 93%
    04:00 +13°C° 1.1 mm 4 mps 720 mmHg 95%
    05:00 +13°C° 0.9 mm 3 mps 720 mmHg 96%
    06:00 +14°C° 0.9 mm 2 mps 720 mmHg 96%
    07:00 +13°C° 0 mm 1 mps 721 mmHg 96%
    08:00 +14°C° 0.9 mm 2 mps 722 mmHg 95%
    09:00 +14°C° 0.9 mm 2 mps 722 mmHg 94%
    10:00 +14°C° 0.9 mm 2 mps 722 mmHg 93%
    11:00 +15°C° 0.4 mm 2 mps 723 mmHg 90%
    12:00 +16°C° 0.4 mm 2 mps 723 mmHg 86%
    13:00 +16°C° 0 mm 2 mps 723 mmHg 84%
    14:00 +17°C° 0.3 mm 2 mps 723 mmHg 81%
    15:00 +18°C° 0.3 mm 1 mps 723 mmHg 77%
    16:00 +19°C° 0.3 mm 1 mps 723 mmHg 74%
    17:00 +16°C° 0.1 mm 1 mps 723 mmHg 79%
    18:00 +15°C° 0.1 mm 1 mps 723 mmHg 84%
    19:00 +13°C° 0.1 mm 1 mps 723 mmHg 89%
    20:00 +12°C° 0 mm 1 mps 723 mmHg 90%
    21:00 +12°C° 0 mm 1 mps 723 mmHg 91%
    22:00 +11°C° 0 mm 1 mps 723 mmHg 92%
    23:00 +10°C° 0 mm 0 mps 723 mmHg 92%

    Tomorrow, 24 September, Tuesday

    Time Temperature Precipitation Wind Pressure Humidity
    00:00 +9°C° 0 mm 0 mps 723 mmHg 93%
    01:00 +9°C° 0 mm 0 mps 723 mmHg 93%
    02:00 +9°C° 0 mm 0 mps 723 mmHg 93%
    03:00 +9°C° 0 mm 0 mps 723 mmHg 93%
    04:00 +8°C° 0 mm 0 mps 722 mmHg 93%
    05:00 +9°C° 0 mm 0 mps 722 mmHg 93%
    06:00 +9°C° 0 mm 0 mps 722 mmHg 93%
    07:00 +9°C° 0 mm 0 mps 721 mmHg 93%
    08:00 +11°C° 0 mm 0 mps 721 mmHg 86%
    09:00 +14°C° 0 mm 1 mps 720 mmHg 79%
    10:00 +16°C° 0 mm 1 mps 720 mmHg 72%
    11:00 +18°C° 0 mm 1 mps 720 mmHg 67%
    12:00 +19°C° 0 mm 1 mps 719 mmHg 63%
    13:00 +20°C° 0 mm 1 mps 719 mmHg 58%
    14:00 +19°C° 0.1 mm 1 mps 719 mmHg 68%
    15:00 +16°C° 0.1 mm 1 mps 719 mmHg 77%
    16:00 +15°C° 0.1 mm 1 mps 719 mmHg 87%
    17:00 +14°C° 0.4 mm 1 mps 719 mmHg 89%
    18:00 +13°C° 0.4 mm 1 mps 719 mmHg 91%
    19:00 +13°C° 0.4 mm 1 mps 719 mmHg 94%
    20:00 +13°C° 0.2 mm 1 mps 719 mmHg 94%
    21:00 +13°C° 0.2 mm 1 mps 719 mmHg 94%
    22:00 +13°C° 0.2 mm 2 mps 719 mmHg 94%
    23:00 +13°C° 0.3 mm 2 mps 719 mmHg 94%

    Day after tomorrow, 25 September, Wednesday

    Time Temperature Precipitation Wind Pressure Humidity
    00:00 +13°C° 0.3 mm 1 mps 719 mmHg 94%
    01:00 +13°C° 0.3 mm 1 mps 718 mmHg 94%
    02:00 +13°C° 0.2 mm 1 mps 718 mmHg 94%
    03:00 +13°C° 0.2 mm 1 mps 718 mmHg 95%
    04:00 +13°C° 0.2 mm 1 mps 718 mmHg 95%
    05:00 +13°C° 0.3 mm 1 mps 718 mmHg 95%
    06:00 +13°C° 0.3 mm 2 mps 718 mmHg 95%
    07:00 +13°C° 0.3 mm 2 mps 718 mmHg 95%
    08:00 +14°C° 0.3 mm 2 mps 719 mmHg 91%
    09:00 +13°C° 0.3 mm 3 mps 719 mmHg 87%
    10:00 +14°C° 0.3 mm 3 mps 719 mmHg 83%
    11:00 +16°C° 0.2 mm 3 mps 719 mmHg 79%
    12:00 +16°C° 0.2 mm 3 mps 719 mmHg 75%
    13:00 +17°C° 0.2 mm 4 mps 719 mmHg 71%
    14:00 +17°C° 0.5 mm 3 mps 719 mmHg 74%
    15:00 +17°C° 0.5 mm 3 mps 719 mmHg 76%
    16:00 +16°C° 0.5 mm 3 mps 719 mmHg 78%
    17:00 +14°C° 0.1 mm 3 mps 719 mmHg 81%
    18:00 +14°C° 0.1 mm 2 mps 719 mmHg 83%
    19:00 +13°C° 0.1 mm 2 mps 719 mmHg 86%
    20:00 +13°C° 0.1 mm 2 mps 720 mmHg 86%
    21:00 +13°C° 0.1 mm 2 mps 720 mmHg 87%
    22:00 +12°C° 0.1 mm 2 mps 720 mmHg 88%
    23:00 +12°C° 0.2 mm 2 mps 720 mmHg 90%

    26 September, Thursday

    Time Temperature Precipitation Wind Pressure Humidity
    00:00 +12°C° 0.2 mm 2 mps 720 mmHg 92%
    01:00 +10°C° 0.2 mm 2 mps 720 mmHg 94%
    02:00 +12°C° 0.3 mm 2 mps 720 mmHg 94%
    03:00 +12°C° 0.3 mm 2 mps 720 mmHg 94%
    04:00 +12°C° 0.3 mm 2 mps 721 mmHg 94%
    05:00 +12°C° 0.2 mm 2 mps 721 mmHg 94%
    06:00 +12°C° 0.2 mm 2 mps 721 mmHg 94%
    07:00 +12°C° 0.2 mm 2 mps 721 mmHg 94%
    08:00 +13°C° 0.1 mm 2 mps 722 mmHg 93%
    09:00 +13°C° 0.1 mm 2 mps 722 mmHg 92%
    10:00 +14°C° 0.1 mm 2 mps 723 mmHg 91%
    11:00 +14°C° 0.1 mm 3 mps 723 mmHg 88%
    12:00 +16°C° 0.1 mm 3 mps 723 mmHg 85%
    13:00 +16°C° 0.1 mm 3 mps 723 mmHg 82%
    14:00 +17°C° 0 mm 2 mps 723 mmHg 81%
    15:00 +17°C° 0 mm 2 mps 723 mmHg 81%
    16:00 +17°C° 0 mm 2 mps 723 mmHg 81%
    17:00 +16°C° 0 mm 1 mps 723 mmHg 83%
    18:00 +15°C° 0 mm 1 mps 723 mmHg 85%
    19:00 +15°C° 0 mm 1 mps 723 mmHg 87%
    20:00 +14°C° 0 mm 1 mps 723 mmHg 88%
    21:00 +14°C° 0 mm 1 mps 723 mmHg 90%
    22:00 +13°C° 0 mm 1 mps 724 mmHg 91%
    23:00 +13°C° 0 mm 1 mps 724 mmHg 91%

    27 September, Friday

    Time Temperature Precipitation Wind Pressure Humidity
    00:00 +13°C° 0 mm 1 mps 723 mmHg 90%
    01:00 +13°C° 0 mm 1 mps 723 mmHg 90%
    02:00 +13°C° 0 mm 1 mps 723 mmHg 89%
    03:00 +13°C° 0 mm 1 mps 723 mmHg 89%
    04:00 +13°C° 0 mm 1 mps 723 mmHg 88%
    05:00 +13°C° 0 mm 1 mps 723 mmHg 88%
    06:00 +13°C° 0 mm 1 mps 723 mmHg 88%
    07:00 +13°C° 0 mm 1 mps 723 mmHg 87%
    08:00 +14°C° 0 mm 1 mps 723 mmHg 84%
    09:00 +16°C° 0 mm 1 mps 723 mmHg 80%
    10:00 +17°C° 0 mm 2 mps 723 mmHg 77%
    11:00 +18°C° 0 mm 2 mps 723 mmHg 73%
    12:00 +19°C° 0 mm 3 mps 723 mmHg 68%
    13:00 +20°C° 0 mm 3 mps 723 mmHg 64%
    14:00 +20°C° 0 mm 3 mps 723 mmHg 64%
    15:00 +21°C° 0 mm 3 mps 723 mmHg 65%
    16:00 +21°C° 0 mm 2 mps 723 mmHg 65%
    17:00 +19°C° 0 mm 2 mps 723 mmHg 73%
    18:00 +17°C° 0 mm 2 mps 723 mmHg 80%
    19:00 +15°C° 0 mm 1 mps 723 mmHg 87%
    20:00 +15°C° 0 mm 1 mps 723 mmHg 88%
    21:00 +14°C° 0 mm 1 mps 723 mmHg 89%
    22:00 +14°C° 0 mm 1 mps 724 mmHg 91%
    23:00 +14°C° 0 mm 1 mps 724 mmHg 91%

    28 September, Saturday

    Time Temperature Precipitation Wind Pressure Humidity
    00:00 +13°C° 0 mm 1 mps 723 mmHg 91%
    01:00 +12°C° 0 mm 0 mps 723 mmHg 92%
    02:00 +13°C° 0.1 mm 1 mps 723 mmHg 93%
    03:00 +13°C° 0.1 mm 1 mps 723 mmHg 93%
    04:00 +13°C° 0.1 mm 1 mps 723 mmHg 94%
    05:00 +13°C° 0.2 mm 1 mps 724 mmHg 95%
    06:00 +13°C° 0.2 mm 1 mps 724 mmHg 95%
    07:00 +13°C° 0.2 mm 1 mps 724 mmHg 95%
    08:00 +14°C° 0.1 mm 1 mps 724 mmHg 91%
    09:00 +15°C° 0.1 mm 2 mps 724 mmHg 87%
    10:00 +16°C° 0.1 mm 2 mps 725 mmHg 82%
    11:00 +17°C° 0 mm 2 mps 724 mmHg 78%
    12:00 +18°C° 0 mm 3 mps 724 mmHg 74%
    13:00 +18°C° 0 mm 3 mps 724 mmHg 69%
    14:00 +18°C° 0 mm 3 mps 724 mmHg 69%
    15:00 +18°C° 0 mm 2 mps 724 mmHg 68%
    16:00 +18°C° 0 mm 2 mps 723 mmHg 68%
    17:00 +18°C° 0 mm 1 mps 723 mmHg 75%
    18:00 +15°C° 0 mm 1 mps 723 mmHg 83%
    19:00 +12°C° 0 mm 0 mps 723 mmHg 90%
    20:00 +11°C° 0 mm 0 mps 723 mmHg 91%
    21:00 +11°C° 0 mm 0 mps 723 mmHg 92%
    22:00 +11°C° 0 mm 0 mps 723 mmHg 93%
    23:00 +10°C° 0 mm 0 mps 722 mmHg 93%
    Show more